Terug naar catalogus

ARIANE 1 DEB

ActiefSSO
NORAD 16616·DEBRIS·🇫🇷 France

Gelanceerd Feb 22, 1986 vanaf Guiana Space Centre

Loading…

Volgende Passages (komende 24 uur)

TLE

VersSource: Space-Track

Epoch: Sep 14, 2026, 14:37 UTC

1 16616U 86019D   26257.60945196  .00000231  00000-0  10285-3 0  9991
2 16616  98.2778 249.4258 0006915 333.5227  98.8433 14.31372954111033

Volg ARIANE 1 DEB in realtime met AllMySat

Download on the App Store